This is the latest recevied weather packets stored in our database for station/object KE0YJJ-14. If no packets are shown the sender has not sent any weather packets the latest 10 day(s).
| Time | Temp. | Humidity | Pressure | Rain* | Wind** | Luminosity | Snow |
|---|---|---|---|---|---|---|---|
| 1777405257 | 12.78° C | 51% | - | 0 mm | - | - | - |
| 1777404956 | 12.22° C | 50% | - | 0 mm | - | - | - |
| 1777404651 | 12.78° C | 50% | - | 0 mm | - | - | - |
| 1777404348 | 12.78° C | 50% | - | 0 mm | - | - | - |
| 1777404044 | 12.22° C | 55% | - | 0 mm | - | - | - |
| 1777403740 | 12.22° C | 49% | - | 0 mm | - | - | - |
| 1777403438 | 11.67° C | 53% | - | 0 mm | - | - | - |
| 1777403138 | 12.22° C | 53% | - | 0 mm | - | - | - |
| 1777402834 | 11.67° C | 56% | - | 0 mm | - | - | - |
| 1777402532 | 11.67° C | 56% | - | 0 mm | - | - | - |
| 1777402228 | 11.67° C | 50% | - | 0 mm | - | - | - |
| 1777401923 | 12.78° C | 52% | - | 0 mm | - | - | - |
| 1777401622 | 12.22° C | 58% | - | 0 mm | - | - | - |
| 1777401320 | 12.22° C | 53% | - | 0 mm | - | - | - |
| 1777401015 | 11.67° C | 53% | - | 0 mm | - | - | - |
| 1777400711 | 11.67° C | 51% | - | 0 mm | - | - | - |
| 1777400409 | 11.67° C | 60% | - | 0 mm | - | - | - |
| 1777400109 | 11.67° C | 55% | - | 0 mm | - | - | - |
| 1777399806 | 12.22° C | 61% | - | 0 mm | - | - | - |
| 1777399503 | 12.22° C | 56% | - | 0 mm | - | - | - |
| 1777399200 | 12.22° C | 64% | - | 0 mm | - | - | - |
| 1777398897 | 11.67° C | 58% | - | 0 mm | - | - | - |
| 1777398594 | 11.67° C | 57% | - | 0 mm | - | - | - |
| 1777398290 | 11.11° C | 58% | - | 0 mm | - | - | - |
| 1777397983 | 11.67° C | 53% | - | 0 mm | - | - | - |
* Rain latest hour (hover to see other rain measurements)
** Current wind speed in m/s (hover to see current wind gust speed)